Resultats 25Km 2017

Posició Dorsal Atleta Temps
1 380 Marc Pérez Bautista 02:18:17
2 316 David Frias Perez 02:20:07
3 377 Wifred Lladó Hernández 02:20:28
4 398 Angel Nevado Iglesias 02:22:04
5 362 Nil Corominas 02:27:22
6 359 Carlos Ramírez Martínez 02:28:39
7 405 SERGI COTS SOTOCA 02:30:03
8 342 Valenti Viñas Vilardebo 02:30:05
9 410 MARC CRIVILLÉS PÉREZ 02:35:14
10 328 Jordi Granell Díaz 02:37:48
11 389 Eduard Pascal Rovira 02:38:12
12 408 BIEL RÀFOLS 02:39:45
13 388 Sergi  Viñas Ferrer 02:41:14
14 407 JOSEP GRAS VIVES 02:41:34
15 383 Martí Aranyó Palos 02:42:04
16 347 Joaquim Sánchez Real 02:42:41
17 345 Eric Tort Aymerich 02:43:32
18 399 Roger Cartes Godoy 02:44:12
19 386 Oriol López I Bultó 02:48:37
20 400 Jordi Clot Coronas 02:49:06
21 403 SERGI CORDERO 02:50:35
22 324 Eric Martin Rodriguez 02:50:48
23 413 PERE MITJAVILA LUPIOLA 02:50:56
24 353 Javier Cano Adalid 02:52:38
25 334 Sergio Abajas Gonzalez 02:52:59
26 415 Jordi Bayona Sivila 02:53:04
27 397 Andreu Villar Rosa 02:55:28
28 308 Joan Carrillo Alarcon 02:55:30
29 381 Montse Picanyol Ponsa 02:55:34
30 378 Jordi Dorca Tarruella 02:55:53
31 304 Víctor López Sánchez 02:55:56
32 369 Albert Cots Rosiñol 02:56:11
33 384 Jordi Tenorio Ibarra 02:56:53
34 417 RAMON CABALLÉ 02:57:21
35 401 Albert Coromina Mompel 02:57:45
36 402 Núria Santmiquel Crispí 02:57:45
37 358 Neus Rosiñol Menchón 02:59:42
38 310 David Lozano Ramirez 03:01:44
39 395 Stefan Dauwalder 03:02:55
40 382 Francesc Asencio Barroso 03:03:37
41 416 VALENTÍ COTS 03:07:06
42 343 Marc Giné Sabata 03:07:39
43 412 ELVA ROJAS LEDEZMA 03:07:42
44 418 RAMON AUBETS RAFART 03:08:48
45 346 Marc Soler-casagemas Coll 03:09:38
46 366 Oscar Martinez Bertran 03:11:39
47 355 Jordi Garcia Suarez 03:11:57
48 327 Bernat Bernabeu Blanco 03:12:42
49 344 Juan De Bravo 03:12:45
50 387 Cristina Rotxés Ambros 03:12:58
51 314 Fernando  Barcos Navarro 03:13:26
52 404 HELENA FIGULS RIU 03:13:38
53 367 Andreu López Anadón 03:14:34
54 409 BROVÉ QUENTIN 03:14:48
55 331 Marta Burgués Ros 03:15:25
56 323 Juan Antonio Henestrosa Lara 03:16:28
57 385 Xavi Rosas Fuentes 03:16:40
58 352 Juan Jose Jimenez Ruiz 03:19:54
59 339 Pablo Santiago Calvo 03:20:48
60 376 Josep  Mª Pujol  Ribera 03:21:51
61 351 Bea Campos Bautista 03:24:56
62 394 Jordi Espelt Pons 03:25:57
63 392 òscar Sanchez I Gomez 03:26:32
64 350 Sergio Campos Castillo 03:26:32
65 361 Jose Diaz Canovas 03:30:15
66 338 Josep Tierz Garcia 03:31:30
67 326 Ruben Henestrosa Lara 03:32:06
68 141 XAVI CARRILLO 03:32:42
69 306 Marti Seuba Macia 03:34:36
70 301 Oscar Ballano Muñoz 03:35:25
71 411 ADRIÀ SÁNCHEZ CASADEMUNT 03:35:50
72 320 Montse Ors Cordoba 03:36:32
73 309 Alicia Ruiz Trasserra 03:38:08
74 349 Unai Dalmau Mor 03:38:09
75 391 Jordi Luque Martin 03:38:29
76 406 MONTSE TORNÉ 03:38:35
77 311 Martí Armengou Molins 03:39:30
78 368 David Garcia Medina 03:40:51
79 10 Eloi Vila Cullerés 03:41:27
80 9 Marcel Gozalbo Baró 03:41:38
81 390 David  Domingo Perez 03:41:39
82 357 Jordi Guardia Garcia 03:41:57
83 360 Enric Corominas 03:41:59
84 330 David Gracia Sainz 03:42:23
85 340 Sergi Jódar Gener 03:44:34
86 365 Josep Barot Casany 03:45:29
87 414 TONI JÁNDULA NOGUERA 03:46:56
88 322 Jordi Ollé Pous 03:52:36
89 371 Yolanda Lozano Paez 03:52:38
90 307 òscar Sànchez Delgado 03:54:03
91 420 CARLOS BERNABÉ 03:54:17
92 305 Albert Bernabe Diaz 03:55:19
93 303 Carles Escala Balaguer 03:55:38
94 341 Agustina Arguijo Campiutti 03:58:32
95 419 GEMMA CUBERAS 03:58:36
96 356 Brahim Benlarbi 04:00:46
97 318 Andres  Vivar Güiza 04:01:50
98 302 Isabel Alujas Marín 04:02:20
99 354 Josep Castañé Selga 04:07:18
100 337 Franciscisco Javier Martin Ramirez 04:12:38
101 364 Ismael Cobo Pimentel 04:21:10
102 379 Ivan Barbosa Reixach 04:21:26
103 329 Jaume Jorda Gea 04:22:14
104 336 David Pardo Estadella 04:22:15
105 396 Gloria  Milla Calvo 04:26:30
106 372 Oscar Molins Coyo 04:32:58
107 321 Jordi Perich Cruells 04:33:17
108 317 Martin Cardenas Acedo 04:33:23
109 370 Cesc Rodríguez Brigido 04:37:45
110 374 Ramon Benet Tella 04:43:28
111 373 Noemi  Lorente Torrelles 04:43:28